Regional Weather Roundup
Issued by NWS Newport/Morehead, NC

Current Version | Previous Version | Graphics & Text | Print | Product List | Glossary Off
Versions: 1 2 3 4 5 6 7 8 9 10 11 12 13 14 15 16 17 18 19 20 21 22 23 24 25 26 27 28 29 30 31 32 33 34 35 36 37 38 39 40 41 42 43 44 45 46 47 48 49 50

000
ASUS42 KMHX 201710
RWRMHX
WEATHER ROUNDUP FOR EASTERN NORTH CAROLINA
NATIONAL WEATHER SERVICE NEWPORT/MOREHEAD CITY NC
100 PM EDT WED AUG 20 2014

NOTE: "FAIR" INDICATES FEW OR NO CLOUDS BELOW 12,000 FEET
WITH NO SIGNIFICANT WEATHER AND/OR OBSTRUCTIONS TO VISIBILITY

NCZ015>017-031-032-045>047-102-103-201800-
NORTH COAST

CITY           SKY/WX    TMP DP  RH WIND       PRES   REMARKS
EDENTON        PTSUNNY   81  71  71 S5        29.99S
ELIZABETH CITY PTSUNNY   83  70  64 VRB5      29.98S
KITTY HAWK     SUNNY     81  72  73 NE7       29.97S
MANTEO         PTSUNNY   81  72  74 NE9       29.98S

$$

NCZ045>047-081-094-103-104-201800-
CENTRAL COAST

CITY           SKY/WX    TMP DP  RH WIND       PRES   REMARKS
FRISCO         PTSUNNY   82  75  79 N9        29.96F
SWANQUARTER      N/A     86 N/A N/A E3        29.94S

$$

NCZ095-097-098-100-101-201800-
SOUTHERN COAST

CITY           SKY/WX    TMP DP  RH WIND       PRES   REMARKS
BEAUFORT       MOSUNNY   86  74  67 NW7       29.98S
CEDAR ISLAND     N/A     82 N/A N/A NW3       30.00S
JACKSONVILLE   PTSUNNY   87  73  62 VRB3      29.98S
NEWPORT        NOT AVBL
PINEY ISLAND   PTSUNNY   85  75  72 VRB5      29.97F
WILMINGTON     PTSUNNY   88  76  67 MISG      29.98F


$$

NCZ011>013-027>030-043-044-078>080-089-090>093-098-201800-
COASTAL PLAIN

CITY           SKY/WX    TMP DP  RH WIND       PRES   REMARKS
AHOSKIE        MOSUNNY   81  69  67 CALM      29.99F
CLINTON        PTSUNNY   84  75  74 N3        29.99F
ELIZABETHTOWN  MOSUNNY   88  73  61 N3        29.98F
GOLDSBORO      MOSUNNY   85  77  76 NE7       29.98S
GREENVILLE     MOSUNNY   82  72  69 NW6       30.01F
HAVELOCK       MOSUNNY   85  73  67 N7        29.99S
KENANSVILLE    MOSUNNY   86  71  60 NW5       30.00F
KINSTON        PTSUNNY   84  72  65 N5        30.00F
NEW BERN       PTSUNNY   85  72  65 N6        29.99S
RICHLANDS      PTSUNNY   84  70  61 CALM      29.99S
ROANOKE RAPIDS NOT AVBL
ROCKY MOUNT    MOSUNNY   83  71  67 CALM      30.00F
WASHINGTON     MOSUNNY   83  73  70 W5        29.99S
WHITEVILLE     SUNNY     89  72  56 SW6       29.97F

$$

AMZ130-135-150-152-154-156-158-170-250-252-270-ANZ085-086-088-633-658-670-201800-
MARINE OBSERVATIONS

STATION/POSITION TIME  TEMP    WIND        PRES    WAVE   SWELL
                       AIR SEA DIR/SP/G            HT/PER HT/PER
                 (UTC) (F)     (DEG/KT/KT) (MB)    (FT/S) (FT/S)
CHESAPEAKE LIGHT 1600   75      50/  9/ 11 1016.1
BUOY 44014       1700   77 78   40/ 12/ 14 1014.4    3/ 6   2/ 6
DUCK             1700   77 79   40/  8/ 10 1014.4
2E DUCK          1700                        N/A     3/ 6
OREGON INLET     1700   80 80   20/  9/ 11 1014.7
BUOY 44095       1700      80                N/A     3/ 6
20E OREGON INLET NOT AVBL
HATTERAS CG      1700   80 81   40/  9/ 12 1015.2
DIAMOND BUOY     NOT AVBL
CAPE LOOKOUT     1600   82     360/  3/  6 1015.1
BEAUFORT LAB     1700   83 82  350/  4/  7 1014.8
30 SE NEW RIVER  1700   80 83   10/  2/  2 1015.1    3/ 7   3/ 7
5 SE WRIGHTSVILL 1600   78 83  110/  4/  4   N/A
BUOY 41002       1650   80 81  300/ 12/ 14 1017.7    6/ 7   5/ 7
BUOY 41004       1700   81 83  230/  8/ 10 1015.7    4/ 6   3/ 6

$$


USA.gov is the U.S. government's official web portal to all federal, state and local government web resources and services.